GW1162 Weather Reports


Display with metric or nautical units.
time (UTC)temp
F
wind
direction
speed
MPH
gust
MPH
rain 1hr
in
rain 24hr
in
rain mn
in
humidity
%
barometer
mb
20260510060206 48 345 1.0 2.0 0.00 0.22 0.04 97 1000.2
20260510050706 49 311 1.0 1.0 0.03 0.22 0.04 96 999.7
20260510050206 49 0 0.0 5.0 0.04 0.22 0.04 96 999.8
20260510040205 49 80 2.0 8.0 0.00 0.18 0.00 93 999.5
20260510033706 51 247 1.0 3.0 0.02 0.02 0.02 87 999.7
20260510033206 51 164 1.0 3.0 0.01 0.01 0.01 85 999.5
20260510030705 51 204 1.0 3.0 0.00 0.00 0.00 83 999.0
20260510030206 51 225 2.0 7.0 0.00 0.00 0.00 82 999.1
20260510023705 52 346 1.0 5.0 0.00 0.00 0.00 77 999.8
20260510023205 52 148 2.0 8.0 0.00 0.00 0.00 77 999.9
20260510020705 53 200 2.0 3.0 0.00 0.00 0.00 76 1000.0
20260510020205 53 299 1.0 9.0 0.00 0.00 0.00 75 1000.0
20260510013705 54 0 2.0 3.0 0.00 0.00 0.00 72 1000.6
20260510010706 55 279 1.0 3.0 0.00 0.00 0.00 66 1000.8
20260510010206 56 278 1.0 6.0 0.00 0.00 0.00 65 1000.7
20260510003705 56 190 2.0 7.0 0.00 0.00 0.00 60 1000.7
20260510003206 56 331 1.0 8.0 0.00 0.00 0.00 58 1000.7
20260510000705 57 332 1.0 2.0 0.00 0.00 0.00 53 1000.7
20260510000205 57 196 1.0 6.0 0.00 0.00 0.00 52 1000.7
20260509233705 58 19 0.0 1.0 0.00 0.00 0.00 49 1000.6
20260509233205 58 19 1.0 6.0 0.00 0.00 0.00 47 1000.5
20260509230705 60 76 2.0 6.0 0.00 0.00 0.00 42 1000.4
20260509230205 60 189 1.0 6.0 0.00 0.00 0.00 41 1000.4
20260509223705 62 116 2.0 8.0 0.00 0.00 0.00 37 1000.3
20260509223205 62 172 2.0 5.0 0.00 0.00 0.00 36 1000.4
20260509220705 64 108 3.0 8.0 0.00 0.00 0.00 30 1000.7
20260509220205 64 244 2.0 9.0 0.00 0.00 0.00 29 1000.7
20260509213705 65 172 1.0 5.0 0.00 0.00 0.00 27 1000.7
20260509213205 65 143 2.0 10.0 0.00 0.00 0.00 27 1000.8
20260509210205 64 304 1.0 9.0 0.00 0.00 0.00 30 1001.0
20260509203705 64 355 3.0 6.0 0.00 0.00 0.00 28 1001.0
20260509203205 64 108 2.0 12.0 0.00 0.00 0.00 30 1001.1
20260509200705 64 191 2.0 12.0 0.00 0.00 0.00 28 1001.3
20260509193204 64 298 3.0 10.0 0.00 0.00 0.00 29 1001.8
20260509190705 65 318 3.0 12.0 0.00 0.00 0.00 31 1002.3
20260509190205 65 286 3.0 9.0 0.00 0.00 0.00 30 1002.4
20260509183205 64 37 3.0 8.0 0.00 0.00 0.00 31 1002.8
20260509180706 63 185 4.0 14.0 0.00 0.00 0.00 30 1003.0
20260509180205 63 103 3.0 9.0 0.00 0.00 0.00 30 1003.0
20260509173204 62 21 2.0 12.0 0.00 0.00 0.00 36 1003.3
20260509170706 61 233 2.0 9.0 0.00 0.00 0.00 35 1003.8
20260509170206 61 109 3.0 12.0 0.00 0.00 0.00 35 1003.8
20260509163706 61 49 3.0 7.0 0.00 0.00 0.00 35 1004.2
20260509160707 60 26 2.0 5.0 0.00 0.00 0.00 34 1005.0
20260509160206 60 123 3.0 9.0 0.00 0.00 0.00 34 1005.0
20260509153706 59 110 2.0 3.0 0.00 0.00 0.00 38 1005.4
20260509153207 58 316 3.0 8.0 0.00 0.00 0.00 37 1005.3
20260509150706 58 116 2.0 9.0 0.00 0.00 0.00 40 1005.8
20260509143706 55 181 3.0 9.0 0.00 0.00 0.00 45 1005.9
20260509143206 54 9 3.0 9.0 0.00 0.00 0.00 48 1005.8
20260509140706 52 238 1.0 2.0 0.00 0.00 0.00 51 1006.1
20260509140206 51 200 1.0 3.0 0.00 0.00 0.00 52 1006.2
20260509133706 50 215 1.0 3.0 0.00 0.00 0.00 54 1006.4
20260509133206 50 134 2.0 6.0 0.00 0.00 0.00 54 1006.3
20260509130706 47 55 2.0 3.0 0.00 0.00 0.00 58 1006.4
20260509130206 47 133 2.0 6.0 0.00 0.00 0.00 59 1006.5
20260509123706 45 197 0.0 3.0 0.00 0.00 0.00 65 1006.7
20260509120706 44 169 2.0 6.0 0.00 0.00 0.00 66 1006.8
20260509120206 43 48 1.0 6.0 0.00 0.00 0.00 67 1006.7
20260509113706 43 354 0.0 2.0 0.00 0.00 0.00 69 1006.5
20260509113206 42 350 1.0 3.0 0.00 0.00 0.00 70 1006.5
20260509110706 40 70 0.0 1.0 0.00 0.00 0.00 76 1006.4
20260509110206 40 70 0.0 2.0 0.00 0.00 0.00 76 1006.4
20260509103705 40 70 0.0 0.0 0.00 0.00 0.00 79 1006.3
20260509100205 40 71 0.0 2.0 0.00 0.00 0.00 79 1006.2
20260509093706 39 167 0.0 1.0 0.00 0.00 0.00 79 1006.3
20260509093206 39 167 0.0 1.0 0.00 0.00 0.00 79 1006.1
20260509090706 39 167 0.0 1.0 0.00 0.00 0.00 81 1006.0
20260509090206 39 167 0.0 3.0 0.00 0.00 0.00 81 1006.0
20260509083705 38 167 0.0 3.0 0.00 0.00 0.00 82 1006.1
20260509083206 38 167 0.0 3.0 0.00 0.00 0.00 82 1006.2
20260509080706 39 167 2.0 3.0 0.00 0.00 0.00 80 1006.0
20260509080206 39 167 1.0 3.0 0.00 0.00 0.00 80 1006.0
20260509073706 39 167 1.0 3.0 0.00 0.00 0.00 80 1006.1
20260509073206 39 167 1.0 3.0 0.00 0.00 0.00 80 1006.2
20260509070705 39 167 1.0 3.0 0.00 0.00 0.00 80 1006.1
20260509070205 39 167 1.0 3.0 0.00 0.00 0.00 80 1006.0
20260509063705 39 167 2.0 3.0 0.00 0.00 0.00 78 1006.1
20260509063206 39 167 3.0 3.0 0.00 0.00 0.00 77 1006.0